Wind_Speed
49 48 47 47 46 47 47 46 47 47 47 48 48 49 50 50 51 52 53 54 54 55 55 55 56 56 57 57 57 58 58 59 59 58 57 56 56 56 55 55 55 56 56
51 51 50 49 49 49 48 48 49 50 50 50 51 51 51 52 53 54 54 55 55 56 56 56 56 57 57 57 57 57 58 58 59 59 58 57 57 57 56 56 55 55 56
54 54 53 53 52 52 51 51 52 52 53 53 53 53 54 54 55 55 55 55 56 56 56 57 57 57 57 57 57 58 58 58 59 59 58 57 57 57 57 57 56 56 56
56 56 55 55 55 55 55 55 55 55 55 54 54 55 55 55 55 55 55 56 56 57 57 57 57 57 57 57 57 58 58 58 58 58 58 58 57 57 57 58 57 57 57
56 56 56 57 57 57 57 57 57 56 56 56 56 56 56 56 55 55 56 57 57 57 57 57 57 57 57 57 58 58 58 58 58 58 58 57 57 57 57 57 57 58 58
56 57 57 58 58 58 58 58 58 57 57 57 57 57 56 56 56 56 56 56 56 56 57 57 57 57 57 57 57 57 57 57 58 58 57 57 56 56 56 56 57 57 57
56 57 57 57 58 58 58 58 58 58 57 57 57 56 56 55 56 56 56 57 56 56 56 56 56 56 56 56 56 57 56 57 57 56 56 56 56 56 56 57 58 58 56
55 55 56 56 57 57 57 57 57 57 56 56 56 55 55 56 56 56 56 56 56 56 55 55 55 56 56 56 57 56 56 56 55 56 56 56 57 57 57 57 57 57 57
54 54 55 55 55 56 56 55 55 55 55 55 55 55 55 55 56 55 55 55 55 55 55 55 55 55 55 55 55 55 55 55 55 56 56 56 56 56 56 55 56 56 57
53 53 53 53 53 53 53 53 53 53 53 53 53 54 54 54 55 55 54 54 54 53 53 53 53 53 54 54 54 54 55 56 56 56 55 55 55 55 55 55 55 56 56
53 53 52 52 52 52 52 52 52 52 52 53 53 53 53 53 53 53 52 52 52 52 52 52 52 53 54 54 54 55 55 55 55 55 54 54 54 54 53 54 55 55 55
53 52 52 52 52 52 52 52 52 52 52 53 53 53 53 53 53 53 53 53 53 52 52 52 52 53 53 53 53 53 54 53 53 53 53 53 53 53 53 54 55 55 56
54 53 52 53 53 53 53 53 53 53 53 53 53 53 53 53 53 53 53 53 53 52 52 52 52 53 53 53 53 53 53 53 52 53 53 52 53 53 54 55 55 56 57
55 54 54 53 53 53 53 54 53 52 52 52 52 52 52 53 53 53 53 53 52 52 52 52 52 52 52 53 53 53 52 52 53 53 53 54 53 54 54 55 56 57 58
56 55 54 54 54 54 54 54 53 53 52 52 52 52 52 52 52 53 52 52 52 52 52 52 52 52 53 53 53 53 53 53 54 54 54 55 55 55 56 56 57 58 59
56 55 54 54 54 54 54 53 53 53 53 52 53 52 52 52 52 52 52 52 53 53 53 53 53 53 53 53 53 53 54 54 55 55 55 56 56 57 57 58 58 59 60
57 57 56 55 54 54 54 54 54 54 53 53 52 53 53 53 53 53 53 53 53 53 53 54 54 54 54 54 54 54 54 55 55 56 56 57 57 58 58 59 60 61 62
59 58 58 57 55 55 54 54 54 54 54 53 54 54 54 54 54 54 54 54 54 54 54 55 55 55 55 55 55 55 56 56 56 57 57 58 59 60 60 61 62 63 64
60 59 59 58 57 56 55 55 55 55 55 55 55 55 55 55 56 56 56 56 55 55 55 56 56 57 57 57 57 57 57 58 58 59 59 60 61 62 63 64 65 66 67
59 59 58 58 57 57 56 56 56 56 56 56 56 56 56 56 57 57 57 57 57 57 57 58 58 57 57 58 58 59 59 60 61 61 62 63 64 65 66 67 67 68 68
58 58 58 58 58 58 58 58 57 57 57 57 57 57 57 58 58 58 58 58 58 58 59 59 59 59 59 60 61 62 63 63 64 65 65 66 67 68 68 69 70 70 71
58 58 58 58 58 58 58 58 58 58 58 58 58 58 58 59 60 60 60 60 60 60 61 61 61 62 62 63 64 65 66 66 67 68 68 69 70 70 71 71 71 72 72
58 58 58 58 59 59 59 59 59 59 59 59 59 60 60 61 61 62 62 62 62 62 63 64 64 65 66 66 67 68 68 68 69 70 70 71 71 71 72 72 72 72 72
58 58 59 60 60 60 61 61 62 62 62 62 62 62 63 63 63 63 64 64 64 65 66 67 67 68 69 69 69 70 70 71 71 72 72 72 72 72 72 72 72 72 71
59 60 60 61 61 62 63 63 63 63 64 64 64 64 65 65 66 66 67 67 68 68 69 70 70 71 71 71 71 72 73 73 73 73 73 72 72 73 73 72 72 71 70
60 61 61 62 63 63 64 64 65 65 66 66 67 67 68 68 69 69 70 70 71 71 71 72 72 73 73 73 74 74 74 74 74 74 73 73 73 72 71 71 70 69 69
Wind_Direction
255 256 257 258 258 259 259 260 261 262 264 265 267 268 270 272 273 275 276 278 279 280 282 284 286 287 288 290 291 292 293 294 295 296 296 296 297 297 298 299 298 299 299
254 255 256 256 257 258 259 260 261 262 263 265 266 268 270 271 273 275 276 278 279 281 282 283 285 286 288 289 290 291 292 293 293 295 295 296 295 295 296 297 297 297 297
252 254 255 256 257 257 258 259 261 262 263 265 266 268 269 271 273 275 277 278 280 281 282 284 285 286 288 289 289 290 291 292 293 294 295 295 294 294 295 296 296 295 296
252 253 254 256 256 257 258 259 260 262 264 265 267 268 270 272 274 276 277 278 279 281 282 284 285 286 287 287 288 289 289 290 291 292 293 294 294 294 295 296 295 294 294
252 253 254 255 256 257 258 259 261 262 264 266 267 269 271 272 274 275 277 278 279 281 282 283 284 285 286 287 288 288 288 288 290 291 292 293 294 295 295 294 294 293 295
253 254 255 255 257 258 259 260 262 263 264 266 268 270 271 273 274 275 277 278 279 281 282 283 284 285 286 286 287 287 287 289 290 291 292 293 293 294 293 293 293 294 295
253 254 255 256 257 258 259 261 262 263 265 266 268 269 271 272 274 275 277 278 280 281 283 284 285 285 286 286 287 286 288 291 290 290 291 292 292 293 294 294 293 294 294
254 255 256 257 257 258 260 261 262 264 265 266 268 269 271 273 274 276 278 279 281 282 283 284 284 285 285 286 286 287 289 290 289 290 290 290 291 292 293 293 293 294 295
254 255 256 257 258 259 260 262 263 264 266 267 268 270 271 273 275 276 277 279 280 282 282 284 284 284 286 287 287 288 289 290 290 289 290 291 291 292 293 293 294 295 296
255 255 256 258 259 260 260 262 263 264 266 267 268 270 272 273 274 275 277 279 280 282 283 284 285 285 285 286 287 288 290 290 290 290 291 291 292 292 292 293 294 295 296
255 257 258 259 259 260 261 262 263 264 265 267 269 270 272 274 275 276 278 279 281 282 283 284 285 285 286 287 288 289 290 291 291 291 291 291 292 292 292 293 294 295 296
255 256 257 259 260 261 262 263 263 264 265 267 269 270 272 274 275 277 278 279 280 281 282 283 284 285 287 287 288 289 290 291 291 291 291 291 292 292 292 294 295 295 296
255 256 258 261 261 262 262 263 264 265 266 268 270 271 273 274 276 277 278 279 280 281 282 282 284 285 286 287 288 289 289 290 290 290 291 292 292 293 293 294 294 296 297
256 257 259 260 261 262 262 263 263 264 266 268 270 272 273 275 276 277 278 279 279 280 281 282 283 284 285 286 288 288 288 289 289 290 291 292 293 294 294 295 296 297 297
256 257 259 260 261 261 261 262 262 264 266 268 270 272 274 275 276 277 278 278 279 280 281 282 283 284 285 286 287 287 288 289 289 290 291 292 293 293 295 295 296 297 298
256 258 259 260 260 260 261 262 263 265 266 268 270 271 273 275 276 277 278 278 279 281 281 282 283 284 284 285 286 286 287 288 289 290 291 292 293 294 295 296 297 298 298
256 257 258 259 259 260 261 262 263 265 266 268 270 272 273 274 275 276 277 278 279 280 281 282 282 283 283 284 285 286 287 288 288 290 291 292 293 294 295 296 297 298 298
256 257 257 258 259 260 261 262 263 265 267 268 270 271 272 273 274 275 277 278 279 280 281 281 282 283 283 284 285 286 287 288 289 290 292 293 294 295 296 296 297 297 298
255 256 257 257 258 259 261 262 263 265 267 268 269 270 271 273 274 275 276 277 278 279 280 281 282 283 283 284 285 286 287 288 290 291 292 293 295 295 296 296 297 297 298
254 255 256 257 259 260 261 263 264 266 267 268 269 270 271 273 274 275 276 277 278 278 280 281 281 282 283 284 285 286 287 288 289 291 292 293 294 295 295 296 297 297 298
254 255 257 258 260 261 263 264 265 265 267 268 270 270 271 273 274 275 276 277 277 278 280 281 282 283 283 284 285 286 287 288 289 290 291 293 294 295 295 296 297 297 297
257 258 259 260 261 262 263 264 265 266 268 269 270 272 273 273 274 275 276 277 278 279 280 281 282 282 283 284 285 286 287 288 289 290 291 292 293 295 296 296 296 296 297
258 260 261 262 263 264 264 265 266 267 268 270 271 272 273 274 275 275 276 277 278 279 280 280 281 282 283 284 286 286 287 288 289 290 291 292 293 294 295 295 295 296 296
259 260 261 262 263 264 265 265 266 267 268 269 270 271 272 273 274 275 276 277 278 279 280 281 281 282 283 284 286 287 287 288 289 290 291 292 292 293 294 294 295 295 295
259 260 261 262 263 264 265 266 267 268 269 269 270 272 273 274 275 275 276 277 278 279 280 281 282 283 284 284 285 286 287 288 289 290 291 291 292 292 293 294 294 294 294
260 261 261 262 263 264 266 266 267 268 269 269 270 272 273 274 275 276 277 278 279 280 280 281 282 283 283 284 285 286 287 288 289 290 290 291 291 292 292 293 293 293 294
Height
5759 5761 5763 5764 5765 5766 5767 5769 5769 5769 5769 5769 5768 5768 5767 5766 5765 5763 5762 5760 5758 5757 5754 5752 5750 5747 5744 5741 5737 5734 5730 5725 5722 5722 5719 5715 5710 5705 5701 5696 5691 5687 5682
5746 5748 5750 5751 5753 5754 5755 5756 5757 5757 5757 5757 5756 5755 5755 5754 5752 5751 5750 5748 5746 5745 5742 5740 5738 5735 5732 5729 5725 5722 5718 5714 5710 5708 5706 5702 5698 5693 5688 5684 5679 5675 5670
5732 5735 5737 5738 5740 5741 5743 5743 5743 5744 5744 5744 5743 5743 5742 5741 5740 5739 5737 5736 5734 5732 5730 5728 5726 5722 5720 5716 5713 5709 5706 5701 5697 5694 5692 5688 5685 5680 5676 5671 5666 5662 5658
5718 5721 5723 5725 5727 5728 5729 5729 5730 5730 5731 5731 5730 5730 5729 5728 5727 5726 5724 5722 5721 5719 5717 5715 5712 5709 5706 5703 5700 5696 5692 5688 5684 5680 5678 5675 5671 5668 5663 5659 5654 5650 5645
5705 5707 5709 5711 5712 5714 5715 5716 5716 5717 5717 5717 5717 5716 5716 5715 5714 5712 5710 5709 5707 5706 5704 5701 5699 5696 5693 5690 5686 5683 5679 5675 5671 5668 5665 5661 5658 5654 5651 5646 5641 5637 5632
5691 5693 5695 5696 5698 5700 5701 5702 5702 5703 5703 5703 5703 5702 5702 5701 5700 5698 5696 5695 5693 5692 5690 5688 5685 5682 5680 5676 5673 5669 5666 5662 5658 5655 5652 5648 5645 5641 5637 5633 5628 5624 5620
5677 5679 5681 5682 5684 5685 5686 5687 5688 5688 5688 5689 5689 5688 5688 5687 5685 5684 5682 5680 5679 5678 5676 5674 5672 5669 5666 5663 5659 5656 5652 5649 5645 5642 5639 5636 5632 5628 5624 5619 5616 5611 5607
5663 5664 5666 5668 5669 5670 5672 5673 5674 5674 5674 5675 5675 5674 5674 5673 5671 5670 5668 5666 5665 5664 5662 5660 5657 5655 5652 5649 5646 5643 5640 5636 5632 5629 5626 5622 5619 5615 5611 5607 5602 5598 5594
5648 5650 5652 5654 5655 5656 5658 5659 5659 5660 5660 5661 5660 5660 5659 5659 5657 5655 5653 5652 5651 5649 5648 5646 5643 5641 5638 5635 5632 5629 5626 5623 5619 5616 5613 5609 5605 5601 5597 5593 5589 5584 5580
5634 5636 5638 5640 5641 5642 5644 5644 5645 5645 5646 5646 5646 5645 5645 5644 5642 5641 5639 5638 5637 5635 5633 5631 5629 5627 5624 5621 5619 5616 5613 5610 5606 5603 5599 5595 5591 5587 5584 5580 5576 5571 5567
5620 5622 5624 5626 5627 5628 5629 5630 5631 5631 5631 5631 5631 5631 5630 5629 5628 5626 5625 5623 5622 5621 5619 5617 5615 5612 5610 5608 5605 5602 5599 5596 5592 5589 5585 5582 5578 5574 5570 5566 5562 5558 5554
5605 5608 5610 5611 5613 5614 5615 5616 5616 5617 5617 5617 5617 5616 5616 5615 5614 5612 5611 5609 5608 5606 5605 5603 5600 5598 5596 5594 5591 5588 5585 5582 5578 5575 5572 5568 5564 5560 5556 5552 5548 5544 5540
5591 5593 5595 5597 5598 5600 5601 5601 5602 5602 5602 5602 5602 5602 5601 5601 5600 5598 5597 5595 5593 5592 5590 5588 5586 5584 5582 5579 5577 5574 5571 5568 5564 5561 5558 5554 5551 5547 5543 5539 5534 5530 5526
5576 5579 5580 5582 5583 5584 5585 5586 5587 5587 5587 5588 5587 5587 5587 5586 5585 5584 5583 5581 5580 5578 5576 5574 5572 5570 5568 5565 5563 5560 5557 5553 5550 5547 5544 5540 5536 5532 5528 5524 5520 5516 5511
5561 5563 5565 5566 5568 5569 5570 5571 5571 5572 5572 5573 5573 5572 5572 5571 5571 5570 5568 5567 5565 5564 5561 5559 5558 5555 5553 5551 5548 5545 5542 5539 5536 5533 5529 5526 5522 5518 5514 5510 5505 5501 5497
5545 5547 5549 5551 5552 5553 5554 5555 5556 5557 5557 5557 5557 5557 5556 5556 5555 5554 5553 5552 5550 5549 5547 5545 5543 5541 5538 5536 5533 5530 5527 5524 5521 5518 5514 5511 5507 5503 5499 5495 5490 5486 5481
5529 5531 5533 5535 5536 5537 5539 5540 5540 5541 5541 5541 5541 5541 5541 5540 5540 5539 5538 5536 5535 5534 5532 5530 5528 5526 5523 5521 5518 5515 5513 5509 5506 5503 5499 5496 5492 5488 5483 5479 5474 5470 5465
5513 5515 5517 5519 5520 5521 5522 5523 5524 5525 5526 5525 5525 5525 5525 5524 5524 5523 5522 5521 5519 5518 5516 5514 5512 5510 5508 5505 5503 5500 5497 5494 5491 5487 5483 5480 5476 5472 5467 5463 5458 5453 5448
5496 5498 5500 5502 5504 5505 5506 5507 5508 5509 5509 5509 5509 5509 5509 5508 5507 5506 5505 5504 5503 5501 5500 5498 5496 5494 5491 5489 5486 5484 5481 5478 5474 5471 5467 5463 5459 5455 5450 5445 5440 5435 5430
5479 5482 5484 5485 5487 5488 5490 5491 5491 5492 5492 5492 5492 5492 5492 5491 5490 5489 5488 5487 5486 5484 5482 5481 5479 5476 5474 5472 5469 5466 5464 5460 5457 5453 5450 5445 5441 5437 5432 5427 5422 5417 5411
5463 5465 5467 5468 5470 5471 5472 5473 5474 5474 5474 5475 5475 5474 5474 5474 5473 5472 5471 5469 5468 5466 5465 5463 5461 5459 5457 5454 5451 5449 5446 5442 5439 5435 5431 5427 5423 5418 5413 5408 5403 5398 5392
5446 5448 5450 5451 5453 5454 5455 5456 5457 5457 5457 5457 5457 5457 5456 5456 5455 5454 5453 5452 5450 5448 5447 5445 5443 5440 5438 5435 5433 5430 5427 5423 5420 5416 5412 5408 5403 5399 5394 5389 5383 5378 5372
5429 5431 5433 5434 5435 5436 5437 5438 5439 5439 5439 5439 5438 5438 5438 5437 5436 5435 5434 5432 5431 5429 5428 5426 5423 5421 5418 5416 5413 5410 5407 5403 5399 5396 5392 5388 5383 5378 5373 5368 5363 5357 5352
5411 5413 5415 5416 5417 5418 5419 5420 5420 5420 5420 5420 5419 5419 5418 5417 5416 5415 5414 5412 5411 5409 5407 5405 5403 5400 5398 5395 5392 5389 5385 5382 5378 5374 5370 5366 5362 5357 5352 5347 5342 5336 5331
5393 5395 5396 5397 5398 5399 5400 5400 5400 5400 5400 5400 5399 5399 5398 5397 5396 5394 5393 5391 5390 5388 5386 5384 5381 5379 5376 5373 5370 5367 5363 5360 5356 5352 5348 5344 5340 5335 5331 5326 5320 5315 5310
5375 5376 5377 5378 5379 5379 5380 5380 5380 5380 5380 5379 5378 5377 5377 5375 5374 5373 5371 5369 5368 5366 5364 5361 5359 5356 5353 5350 5347 5344 5340 5337 5333 5330 5326 5322 5318 5314 5309 5304 5300 5295 5290